,,Stat6,,Stat2,,Stat8,,Stat9,,Stat10,,Wind1,,Wind1,
time,status,PA1M_AVG,status,PR1M_SUM,status,RH1M_AVG,status,SR1M_AVG,status,TA1M_AVG,status,W1dAve1m,status,W1sAve1m,
2008-11-02, 00:00:00,VALID,918.001,VALID,0,VALID,100,VALID,0,VALID,19.8381,VALID,171,VALID,0.0621528,
2008-11-02, 00:01:00,VALID,917.998,VALID,0,VALID,100,VALID,0.0169808,VALID,19.8218,VALID,16,VALID,1.01618,
2008-11-02, 00:02:00,VALID,918.023,VALID,0,VALID,100,VALID,0,VALID,19.8281,VALID,291,VALID,0.200321,
2008-11-02, 00:03:00,VALID,918.026,VALID,0,VALID,100,VALID,0.0169808,VALID,19.8149,VALID,319,VALID,0.118403,
2008-11-02, 00:04:00,VALID,917.988,VALID,0,VALID,100,VALID,0,VALID,19.7961,VALID,22,VALID,1.70217,
2008-11-02, 00:05:00,VALID,917.998,VALID,0,VALID,100,VALID,0,VALID,19.7734,VALID,26,VALID,1.4933,
2008-11-02, 00:06:00,VALID,917.986,VALID,0,VALID,100,VALID,0,VALID,19.7702,VALID,19,VALID,1.9029,
2008-11-02, 00:07:00,VALID,917.974,VALID,0,VALID,100,VALID,0.0169808,VALID,19.7502,VALID,21,VALID,1.17671,
2008-11-02, 00:08:00,VALID,917.979,VALID,0,VALID,100,VALID,0,VALID,19.757,VALID,33,VALID,0.201823,
2008-11-02, 00:09:00,VALID,917.967,VALID,0,VALID,100,VALID,0,VALID,19.757,VALID,33,VALID,0.077939,
2008-11-02, 00:10:00,VALID,917.945,VALID,0,VALID,100,VALID,-0.0169808,VALID,19.7632,VALID,22,VALID,0.534091,
2008-11-02, 00:11:00,VALID,917.94,VALID,0,VALID,100,VALID,0.0339617,VALID,19.7567,VALID,29,VALID,0.271835,
2008-11-02, 00:12:00,VALID,917.933,VALID,0,VALID,100,VALID,0,VALID,19.7442,VALID,6,VALID,0.834263,
2008-11-02, 00:13:00,VALID,917.925,VALID,0,VALID,100,VALID,-0.0169808,VALID,19.7145,VALID,8,VALID,0.0636433,
2008-11-02, 00:14:00,VALID,917.921,VALID,0,VALID,100,VALID,0.0169808,VALID,19.712,VALID,20,VALID,0.198331,
2008-11-02, 00:15:00,VALID,917.902,VALID,0,VALID,100,VALID,0.0169808,VALID,19.7178,VALID,17,VALID,0,
2008-11-02, 00:16:00,VALID,917.897,VALID,0,VALID,100,VALID,0.0169808,VALID,19.7213,VALID,26,VALID,0.101744,
2008-11-02, 00:17:00,VALID,917.905,VALID,0,VALID,100,VALID,0.0169808,VALID,19.7045,VALID,21,VALID,0.171148,
2008-11-02, 00:18:00,VALID,917.89,VALID,0,VALID,100,VALID,0.0339617,VALID,19.7048,VALID,36,VALID,0.818824,
2008-11-02, 00:19:00,VALID,917.895,VALID,0,VALID,100,VALID,0.0169808,VALID,19.6826,VALID,20,VALID,1.89482,
2008-11-02, 00:20:00,VALID,917.896,VALID,0,VALID,100,VALID,0.0339617,VALID,19.6397,VALID,20,VALID,1.43564,
2008-11-02, 00:21:00,VALID,917.886,VALID,0,VALID,100,VALID,0.0169808,VALID,19.6427,VALID,23,VALID,0.845749,
2008-11-02, 00:22:00,VALID,917.878,VALID,0,VALID,100,VALID,0.0339617,VALID,19.6626,VALID,14,VALID,1.32906,
2008-11-02, 00:23:00,VALID,917.881,VALID,0,VALID,100,VALID,0.0509425,VALID,19.6496,VALID,11,VALID,0.750191,
2008-11-02, 00:24:00,VALID,917.882,VALID,0,VALID,100,VALID,0.0509425,VALID,19.6427,VALID,26,VALID,0,
2008-11-02, 00:25:00,VALID,917.844,VALID,0,VALID,100,VALID,0.0169808,VALID,19.6394,VALID,25,VALID,0.144259,
2008-11-02, 00:26:00,VALID,917.842,VALID,0,VALID,100,VALID,0.0169808,VALID,19.6362,VALID,20,VALID,0.601181,
2008-11-02, 00:27:00,VALID,917.824,VALID,0,VALID,100,VALID,0.0509425,VALID,19.6202,VALID,17,VALID,1.80278,
2008-11-02, 00:28:00,VALID,917.827,VALID,0,VALID,100,VALID,0.0509425,VALID,19.6269,VALID,26,VALID,0.55907,
2008-11-02, 00:29:00,VALID,917.802,VALID,0,VALID,100,VALID,0,VALID,19.6332,VALID,30,VALID,0.126736,
2008-11-02, 00:30:00,VALID,917.782,VALID,0,VALID,100,VALID,0.0509425,VALID,19.6362,VALID,32,VALID,1.09022,
2008-11-02, 00:31:00,VALID,917.776,VALID,0,VALID,100,VALID,0.0509425,VALID,19.6359,VALID,20,VALID,1.12536,
2008-11-02, 00:32:00,VALID,917.762,VALID,0,VALID,100,VALID,0,VALID,19.6429,VALID,29,VALID,1.024,
2008-11-02, 00:33:00,VALID,917.794,VALID,0,VALID,100,VALID,0.0339617,VALID,19.6394,VALID,15,VALID,1.2474,
2008-11-02, 00:34:00,VALID,917.781,VALID,0,VALID,100,VALID,0.0339617,VALID,19.6135,VALID,13,VALID,0.860243,
2008-11-02, 00:35:00,VALID,917.76,VALID,0,VALID,100,VALID,0.0169808,VALID,19.6077,VALID,15,VALID,1.04725,
2008-11-02, 00:36:00,VALID,917.781,VALID,0,VALID,100,VALID,-0.0339617,VALID,19.5987,VALID,15,VALID,0.845084,
2008-11-02, 00:37:00,VALID,917.786,VALID,0,VALID,100,VALID,-0.0169808,VALID,19.5813,VALID,2,VALID,0.227095,
2008-11-02, 00:38:00,VALID,917.79,VALID,0,VALID,100,VALID,-0.0339617,VALID,19.5685,VALID,343,VALID,0.0239955,
2008-11-02, 00:39:00,VALID,917.783,VALID,0,VALID,100,VALID,0,VALID,19.5793,VALID,7,VALID,1.54062,
2008-11-02, 00:40:00,VALID,917.804,VALID,0,VALID,100,VALID,0,VALID,19.5753,VALID,16,VALID,0.474516,
2008-11-02, 00:41:00,VALID,917.8,VALID,0,VALID,100,VALID,0.0169808,VALID,19.5848,VALID,15,VALID,0.049782,
2008-11-02, 00:42:00,VALID,917.814,VALID,0,VALID,100,VALID,-0.0169808,VALID,19.5915,VALID,17,VALID,0.199777,
2008-11-02, 00:43:00,VALID,917.804,VALID,0,VALID,100,VALID,-0.0169808,VALID,19.5917,VALID,7,VALID,0.283156,
2008-11-02, 00:44:00,VALID,917.814,VALID,0,VALID,100,VALID,0,VALID,19.585,VALID,7,VALID,0.00799006,
2008-11-02, 00:45:00,VALID,917.818,VALID,0,VALID,100,VALID,0,VALID,19.5887,VALID,346,VALID,0.23941,
2008-11-02, 00:46:00,VALID,917.831,VALID,0,VALID,100,VALID,0,VALID,19.5685,VALID,349,VALID,0.400856,
2008-11-02, 00:47:00,VALID,917.835,VALID,0,VALID,100,VALID,-0.0339617,VALID,19.562,VALID,16,VALID,0.495722,
2008-11-02, 00:48:00,VALID,917.842,VALID,0,VALID,100,VALID,0,VALID,19.5758,VALID,356,VALID,0.285156,
2008-11-02, 00:49:00,VALID,917.852,VALID,0,VALID,100,VALID,0,VALID,19.5688,VALID,6,VALID,0,
2008-11-02, 00:50:00,VALID,917.858,VALID,0,VALID,100,VALID,0,VALID,19.572,VALID,346,VALID,0.0644097,
2008-11-02, 00:51:00,VALID,917.85,VALID,0,VALID,100,VALID,-0.0169808,VALID,19.563,VALID,322,VALID,0.0861235,
2008-11-02, 00:52:00,VALID,917.859,VALID,0,VALID,100,VALID,-0.0339617,VALID,19.563,VALID,353,VALID,0.0651634,
2008-11-02, 00:53:00,VALID,917.868,VALID,0,VALID,100,VALID,0,VALID,19.5788,VALID,353,VALID,0,
2008-11-02, 00:54:00,VALID,917.878,VALID,0,VALID,100,VALID,0,VALID,19.6082,VALID,355,VALID,0.00093006,
2008-11-02, 00:55:00,VALID,917.86,VALID,0,VALID,100,VALID,-0.0509425,VALID,19.6147,VALID,17,VALID,0.0128906,
2008-11-02, 00:56:00,VALID,917.866,VALID,0,VALID,100,VALID,0,VALID,19.6042,VALID,12,VALID,0.0186738,
2008-11-02, 00:57:00,VALID,917.864,VALID,0,VALID,100,VALID,0,VALID,19.5975,VALID,4,VALID,0.0649306,
2008-11-02, 00:58:00,VALID,917.853,VALID,0,VALID,100,VALID,0,VALID,19.6045,VALID,8,VALID,0.0762649,
2008-11-02, 00:59:00,VALID,917.828,VALID,0,VALID,100,VALID,0,VALID,19.5982,VALID,25,VALID,1.36833,
2008-11-02, 01:00:00,VALID,917.84,VALID,0,VALID,100,VALID,0,VALID,19.5947,VALID,16,VALID,0.423473,
2008-11-02, 01:01:00,VALID,917.828,VALID,0,VALID,100,VALID,0,VALID,19.608,VALID,23,VALID,0.129102,
2008-11-02, 01:02:00,VALID,917.823,VALID,0,VALID,100,VALID,0,VALID,19.6115,VALID,19,VALID,0.3621,
2008-11-02, 01:03:00,VALID,917.809,VALID,0,VALID,100,VALID,0,VALID,19.6272,VALID,27,VALID,0,
2008-11-02, 01:04:00,VALID,917.803,VALID,0,VALID,100,VALID,-0.0339617,VALID,19.6374,VALID,24,VALID,1.2707,
2008-11-02, 01:05:00,VALID,917.8,VALID,0,VALID,100,VALID,-0.0679233,VALID,19.6284,VALID,20,VALID,1.13034,
2008-11-02, 01:06:00,VALID,917.798,VALID,0,VALID,100,VALID,-0.118866,VALID,19.6154,VALID,11,VALID,0.211483,
2008-11-02, 01:07:00,VALID,917.801,VALID,0,VALID,100,VALID,-0.118866,VALID,19.6219,VALID,6,VALID,0.00109012,
2008-11-02, 01:08:00,VALID,917.787,VALID,0,VALID,100,VALID,-0.0849042,VALID,19.6052,VALID,19,VALID,0,
2008-11-02, 01:09:00,VALID,917.799,VALID,0,VALID,100,VALID,-0.135847,VALID,19.6022,VALID,21,VALID,0,
2008-11-02, 01:10:00,VALID,917.792,VALID,0,VALID,100,VALID,-0.0849042,VALID,19.6149,VALID,7,VALID,0,
2008-11-02, 01:11:00,VALID,917.758,VALID,0,VALID,100,VALID,-0.101885,VALID,19.586,VALID,337,VALID,0.14897,
2008-11-02, 01:12:00,VALID,917.749,VALID,0.2,VALID,100,VALID,-0.101885,VALID,19.5665,VALID,333,VALID,0.0492932,
2008-11-02, 01:13:00,VALID,917.753,VALID,0,VALID,100,VALID,-0.0679233,VALID,19.5565,VALID,17,VALID,0.363554,
2008-11-02, 01:14:00,VALID,917.742,VALID,0,VALID,100,VALID,-0.101885,VALID,19.56,VALID,11,VALID,0.358356,
2008-11-02, 01:15:00,VALID,917.714,VALID,0,VALID,100,VALID,-0.0849042,VALID,19.5665,VALID,24,VALID,1.46989,
2008-11-02, 01:16:00,VALID,917.746,VALID,0,VALID,100,VALID,-0.0509425,VALID,19.5366,VALID,298,VALID,0.628472,
2008-11-02, 01:17:00,VALID,917.754,VALID,0,VALID,100,VALID,-0.101885,VALID,19.5506,VALID,211,VALID,0.237537,
2008-11-02, 01:18:00,VALID,917.744,VALID,0,VALID,100,VALID,-0.0849042,VALID,19.5535,VALID,206,VALID,0,
2008-11-02, 01:19:00,VALID,917.745,VALID,0,VALID,100,VALID,-0.0849042,VALID,19.5633,VALID,145,VALID,0.143056,
2008-11-02, 01:20:00,VALID,917.724,VALID,0,VALID,100,VALID,-0.0679233,VALID,19.5798,VALID,49,VALID,0.832122,
2008-11-02, 01:21:00,VALID,917.689,VALID,0,VALID,100,VALID,-0.0679233,VALID,19.5503,VALID,270,VALID,1.12633,
2008-11-02, 01:22:00,VALID,917.692,VALID,0,VALID,100,VALID,-0.0849042,VALID,19.5338,VALID,222,VALID,0.301153,
2008-11-02, 01:23:00,VALID,917.654,VALID,0,VALID,100,VALID,-0.0679233,VALID,19.5276,VALID,227,VALID,1.19713,
2008-11-02, 01:24:00,VALID,917.672,VALID,0,VALID,100,VALID,-0.0679233,VALID,19.5111,VALID,310,VALID,1.29762,
2008-11-02, 01:25:00,VALID,917.669,VALID,0,VALID,100,VALID,-0.0679233,VALID,19.4984,VALID,355,VALID,0.255265,
2008-11-02, 01:26:00,VALID,917.673,VALID,0,VALID,100,VALID,-0.0849042,VALID,19.4951,VALID,32,VALID,0.26617,
2008-11-02, 01:27:00,VALID,917.69,VALID,0,VALID,100,VALID,-0.0339617,VALID,19.4852,VALID,56,VALID,0,
2008-11-02, 01:28:00,VALID,917.682,VALID,0,VALID,100,VALID,-0.101885,VALID,19.4692,VALID,95,VALID,0.09375,
2008-11-02, 01:29:00,VALID,917.667,VALID,0,VALID,100,VALID,-0.101885,VALID,19.4689,VALID,137,VALID,0,
2008-11-02, 01:30:00,VALID,917.669,VALID,0,VALID,100,VALID,-0.0849042,VALID,19.4951,VALID,238,VALID,0.015439,
2008-11-02, 01:31:00,VALID,917.641,VALID,0,VALID,100,VALID,-0.101885,VALID,19.4689,VALID,189,VALID,0.220448,
2008-11-02, 01:32:00,VALID,917.585,VALID,0,VALID,100,VALID,-0.0679233,VALID,19.4532,VALID,217,VALID,1.05469,
2008-11-02, 01:33:00,VALID,917.587,VALID,0,VALID,100,VALID,-0.101885,VALID,19.427,VALID,236,VALID,0.508956,
2008-11-02, 01:34:00,VALID,917.573,VALID,0,VALID,100,VALID,-0.0679233,VALID,19.42,VALID,246,VALID,0.290153,
2008-11-02, 01:35:00,VALID,917.555,VALID,0,VALID,100,VALID,-0.0169808,VALID,19.4258,VALID,12,VALID,0.369792,
2008-11-02, 01:36:00,VALID,917.545,VALID,0,VALID,100,VALID,0.0169808,VALID,19.4191,VALID,36,VALID,0,
2008-11-02, 01:37:00,VALID,917.505,VALID,0,VALID,100,VALID,0.0509425,VALID,19.4253,VALID,36,VALID,0,
2008-11-02, 01:38:00,VALID,917.5,VALID,0,VALID,100,VALID,0.0169808,VALID,19.3993,VALID,341,VALID,0.0454545,
2008-11-02, 01:39:00,VALID,917.465,VALID,0,VALID,100,VALID,0,VALID,19.3836,VALID,296,VALID,0.788491,
2008-11-02, 01:40:00,VALID,917.458,VALID,0,VALID,100,VALID,0,VALID,19.3771,VALID,312,VALID,0.106534,
2008-11-02, 01:41:00,VALID,917.443,VALID,0,VALID,100,VALID,0,VALID,19.3736,VALID,25,VALID,0.09375,
2008-11-02, 01:42:00,VALID,917.404,VALID,0,VALID,100,VALID,0,VALID,19.3574,VALID,87,VALID,0,
2008-11-02, 01:43:00,VALID,917.378,VALID,0,VALID,100,VALID,-0.0169808,VALID,19.3771,VALID,77,VALID,0.0933949,
2008-11-02, 01:44:00,VALID,917.362,VALID,0,VALID,100,VALID,-0.0509425,VALID,19.3554,VALID,78,VALID,0.00508721,
2008-11-02, 01:45:00,VALID,917.354,VALID,0,VALID,100,VALID,-0.101885,VALID,19.3556,VALID,24,VALID,0,
2008-11-02, 01:46:00,VALID,917.332,VALID,0,VALID,100,VALID,-0.0849042,VALID,19.3457,VALID,24,VALID,0,
2008-11-02, 01:47:00,VALID,917.324,VALID,0,VALID,100,VALID,-0.0679233,VALID,19.3654,VALID,25,VALID,0.0390625,
2008-11-02, 01:48:00,VALID,917.31,VALID,0,VALID,100,VALID,-0.0509425,VALID,19.3913,VALID,357,VALID,0,
2008-11-02, 01:49:00,VALID,917.286,VALID,0,VALID,100,VALID,-0.0339617,VALID,19.3843,VALID,42,VALID,0.500744,
2008-11-02, 01:50:00,VALID,917.298,VALID,0,VALID,100,VALID,0,VALID,19.341,VALID,23,VALID,0.529535,
2008-11-02, 01:51:00,VALID,917.313,VALID,0,VALID,100,VALID,0.0339617,VALID,19.328,VALID,22,VALID,0.000355114,
2008-11-02, 01:52:00,VALID,917.303,VALID,0,VALID,100,VALID,0.0679233,VALID,19.3247,VALID,69,VALID,0.295573,
2008-11-02, 01:53:00,VALID,917.298,VALID,0,VALID,100,VALID,0.0509425,VALID,19.3247,VALID,30,VALID,0.970656,
2008-11-02, 01:54:00,VALID,917.296,VALID,0.2,VALID,100,VALID,0.0339617,VALID,19.302,VALID,47,VALID,0.979651,
2008-11-02, 01:55:00,VALID,917.315,VALID,0,VALID,100,VALID,0.0679233,VALID,19.2793,VALID,310,VALID,0.181323,
2008-11-02, 01:56:00,VALID,917.288,VALID,0,VALID,100,VALID,0.0169808,VALID,19.2761,VALID,171,VALID,0,
2008-11-02, 01:57:00,VALID,917.275,VALID,0,VALID,100,VALID,-0.0169808,VALID,19.2761,VALID,155,VALID,0,
2008-11-02, 01:58:00,VALID,917.29,VALID,0,VALID,100,VALID,0,VALID,19.2793,VALID,90,VALID,0,
2008-11-02, 01:59:00,VALID,917.289,VALID,0,VALID,100,VALID,0.0339617,VALID,19.2663,VALID,81,VALID,0,
2008-11-02, 02:00:00,VALID,917.278,VALID,0,VALID,100,VALID,0.0169808,VALID,19.2536,VALID,98,VALID,0,
2008-11-02, 02:01:00,VALID,917.281,VALID,0,VALID,100,VALID,0,VALID,19.2566,VALID,59,VALID,0.0234375,
2008-11-02, 02:02:00,VALID,917.266,VALID,0.2,VALID,100,VALID,0.0339617,VALID,19.2471,VALID,56,VALID,0,
2008-11-02, 02:03:00,VALID,917.25,VALID,0,VALID,100,VALID,0.0169808,VALID,19.2144,VALID,157,VALID,0,
2008-11-02, 02:04:00,VALID,917.229,VALID,0,VALID,100,VALID,-0.0169808,VALID,19.2279,VALID,204,VALID,0.00130208,
2008-11-02, 02:05:00,VALID,917.227,VALID,0.2,VALID,100,VALID,0.0169808,VALID,19.1982,VALID,223,VALID,0,
2008-11-02, 02:06:00,VALID,917.243,VALID,0,VALID,100,VALID,0,VALID,19.192,VALID,230,VALID,0.0809832,
2008-11-02, 02:07:00,VALID,917.211,VALID,0,VALID,100,VALID,0.0169808,VALID,19.1401,VALID,242,VALID,0.535352,
2008-11-02, 02:08:00,VALID,917.229,VALID,0,VALID,100,VALID,0,VALID,19.1239,VALID,280,VALID,0.363377,
2008-11-02, 02:09:00,VALID,917.219,VALID,0.2,VALID,100,VALID,0.0169808,VALID,19.1301,VALID,327,VALID,0.0024858,
2008-11-02, 02:10:00,VALID,917.202,VALID,0,VALID,100,VALID,0.0169808,VALID,19.1201,VALID,335,VALID,0.0678943,
2008-11-02, 02:11:00,VALID,917.187,VALID,0.2,VALID,100,VALID,0.0339617,VALID,19.1169,VALID,23,VALID,0.256696,
2008-11-02, 02:12:00,VALID,917.18,VALID,0,VALID,100,VALID,0.0169808,VALID,19.0977,VALID,44,VALID,0,
2008-11-02, 02:13:00,VALID,917.189,VALID,0.2,VALID,100,VALID,0.0169808,VALID,19.1139,VALID,338,VALID,0.0012429,
2008-11-02, 02:14:00,VALID,917.159,VALID,0,VALID,100,VALID,0.0169808,VALID,19.1106,VALID,308,VALID,0,
2008-11-02, 02:15:00,VALID,917.153,VALID,0,VALID,100,VALID,0.0339617,VALID,19.1102,VALID,308,VALID,0,
2008-11-02, 02:16:00,VALID,917.132,VALID,0.2,VALID,100,VALID,0.0169808,VALID,19.1039,VALID,311,VALID,0.0727896,
2008-11-02, 02:17:00,VALID,917.114,VALID,0,VALID,100,VALID,0.0509425,VALID,19.0782,VALID,237,VALID,0.494978,
2008-11-02, 02:18:00,VALID,917.081,VALID,0,VALID,100,VALID,0.0169808,VALID,19.039,VALID,260,VALID,0.0414807,
2008-11-02, 02:19:00,VALID,917.073,VALID,0,VALID,100,VALID,-0.0169808,VALID,19.0333,VALID,356,VALID,0.1788,
2008-11-02, 02:20:00,VALID,917.047,VALID,0,VALID,100,VALID,-0.0849042,VALID,19.0505,VALID,12,VALID,0.40734,
2008-11-02, 02:21:00,VALID,917.012,VALID,0,VALID,100,VALID,-0.0679233,VALID,19.0861,VALID,22,VALID,0,
2008-11-02, 02:22:00,VALID,916.976,VALID,0,VALID,100,VALID,-0.101885,VALID,19.0961,VALID,27,VALID,0,
2008-11-02, 02:23:00,VALID,916.951,VALID,0,VALID,100,VALID,-0.0849042,VALID,19.0994,VALID,25,VALID,0,
2008-11-02, 02:24:00,VALID,916.919,VALID,0,VALID,100,VALID,-0.0679233,VALID,19.1024,VALID,27,VALID,0.471112,
2008-11-02, 02:25:00,VALID,916.892,VALID,0,VALID,100,VALID,-0.0679233,VALID,19.1088,VALID,28,VALID,0.375744,
2008-11-02, 02:26:00,VALID,916.858,VALID,0,VALID,100,VALID,-0.101885,VALID,19.1088,VALID,27,VALID,0.813388,
2008-11-02, 02:27:00,VALID,916.834,VALID,0,VALID,100,VALID,-0.101885,VALID,19.0966,VALID,18,VALID,0.632622,
2008-11-02, 02:28:00,VALID,916.806,VALID,0,VALID,100,VALID,-0.101885,VALID,19.0866,VALID,36,VALID,1.64691,
2008-11-02, 02:29:00,VALID,916.782,VALID,0,VALID,100,VALID,-0.101885,VALID,19.0834,VALID,25,VALID,0.984375,
2008-11-02, 02:30:00,VALID,916.761,VALID,0.2,VALID,100,VALID,-0.0679233,VALID,19.0542,VALID,19,VALID,1.31777,
2008-11-02, 02:31:00,VALID,916.749,VALID,0,VALID,100,VALID,-0.0509425,VALID,19.0375,VALID,21,VALID,1.55945,
2008-11-02, 02:32:00,VALID,916.752,VALID,0,VALID,100,VALID,-0.0679233,VALID,19.0118,VALID,11,VALID,1.12393,
2008-11-02, 02:33:00,VALID,916.719,VALID,0,VALID,100,VALID,-0.0849042,VALID,18.9953,VALID,31,VALID,1.68278,
2008-11-02, 02:34:00,VALID,916.721,VALID,0,VALID,100,VALID,-0.0849042,VALID,19.002,VALID,29,VALID,1.26999,
2008-11-02, 02:35:00,VALID,916.705,VALID,0,VALID,100,VALID,-0.101885,VALID,19.0018,VALID,9,VALID,1.6041,
2008-11-02, 02:36:00,VALID,916.726,VALID,0,VALID,100,VALID,-0.0849042,VALID,18.996,VALID,6,VALID,1.34299,
2008-11-02, 02:37:00,VALID,916.704,VALID,0,VALID,100,VALID,-0.0849042,VALID,18.9758,VALID,360,VALID,0.835574,
2008-11-02, 02:38:00,VALID,916.691,VALID,0,VALID,100,VALID,-0.101885,VALID,18.9726,VALID,13,VALID,0.330602,
2008-11-02, 02:39:00,VALID,916.718,VALID,0,VALID,100,VALID,-0.101885,VALID,18.9988,VALID,13,VALID,0.331032,
2008-11-02, 02:40:00,VALID,916.744,VALID,0,VALID,100,VALID,-0.101885,VALID,19.0085,VALID,356,VALID,0.21596,
2008-11-02, 02:41:00,VALID,916.739,VALID,0,VALID,100,VALID,-0.0849042,VALID,19.0083,VALID,354,VALID,0,
2008-11-02, 02:42:00,VALID,916.742,VALID,0,VALID,100,VALID,-0.0849042,VALID,18.9888,VALID,354,VALID,0,
2008-11-02, 02:43:00,VALID,916.733,VALID,0,VALID,100,VALID,-0.101885,VALID,18.9728,VALID,359,VALID,0,
2008-11-02, 02:44:00,VALID,916.721,VALID,0,VALID,100,VALID,-0.0679233,VALID,18.9761,VALID,100,VALID,0,
2008-11-02, 02:45:00,VALID,916.708,VALID,0,VALID,100,VALID,-0.0849042,VALID,18.9761,VALID,110,VALID,0,
2008-11-02, 02:46:00,VALID,916.698,VALID,0,VALID,100,VALID,-0.0849042,VALID,18.9856,VALID,60,VALID,0.659091,
2008-11-02, 02:47:00,VALID,916.705,VALID,0,VALID,100,VALID,-0.0339617,VALID,18.9826,VALID,52,VALID,0.112645,
2008-11-02, 02:48:00,VALID,916.689,VALID,0,VALID,100,VALID,-0.0679233,VALID,18.9499,VALID,52,VALID,0,
2008-11-02, 02:49:00,VALID,916.68,VALID,0,VALID,100,VALID,-0.0849042,VALID,18.9499,VALID,52,VALID,0,
2008-11-02, 02:50:00,VALID,916.658,VALID,0,VALID,100,VALID,-0.0679233,VALID,18.9831,VALID,51,VALID,0,
2008-11-02, 02:51:00,VALID,916.631,VALID,0,VALID,100,VALID,-0.101885,VALID,18.9891,VALID,22,VALID,0.560268,
2008-11-02, 02:52:00,VALID,916.607,VALID,0,VALID,100,VALID,-0.101885,VALID,18.9733,VALID,13,VALID,0,
2008-11-02, 02:53:00,VALID,916.59,VALID,0,VALID,100,VALID,-0.0849042,VALID,18.9566,VALID,21,VALID,0,
2008-11-02, 02:54:00,VALID,916.573,VALID,0,VALID,100,VALID,-0.118866,VALID,18.9633,VALID,42,VALID,0,
2008-11-02, 02:55:00,VALID,916.553,VALID,0,VALID,100,VALID,-0.0849042,VALID,18.9633,VALID,42,VALID,0,
2008-11-02, 02:56:00,VALID,916.526,VALID,0,VALID,100,VALID,-0.0849042,VALID,18.9728,VALID,42,VALID,0,
2008-11-02, 02:57:00,VALID,916.536,VALID,0,VALID,100,VALID,-0.0849042,VALID,18.9891,VALID,42,VALID,0,
2008-11-02, 02:58:00,VALID,916.528,VALID,0,VALID,100,VALID,-0.0679233,VALID,19.0148,VALID,42,VALID,0,
2008-11-02, 02:59:00,VALID,916.522,VALID,0,VALID,100,VALID,-0.0849042,VALID,18.9918,VALID,28,VALID,0,
2008-11-02, 03:00:00,VALID,916.493,VALID,0,VALID,100,VALID,-0.0679233,VALID,18.9724,VALID,19,VALID,0,
2008-11-02, 03:01:00,VALID,916.482,VALID,0,VALID,100,VALID,-0.101885,VALID,18.9763,VALID,41,VALID,0,
2008-11-02, 03:02:00,VALID,916.476,VALID,0,VALID,100,VALID,-0.0849042,VALID,18.9566,VALID,50,VALID,0,
2008-11-02, 03:03:00,VALID,916.478,VALID,0,VALID,100,VALID,-0.0849042,VALID,18.9307,VALID,53,VALID,0,
2008-11-02, 03:04:00,VALID,916.478,VALID,0,VALID,100,VALID,-0.0509425,VALID,18.9142,VALID,56,VALID,0,
2008-11-02, 03:05:00,VALID,916.473,VALID,0,VALID,100,VALID,0.0169808,VALID,18.9095,VALID,84,VALID,0.072311,
2008-11-02, 03:06:00,VALID,916.49,VALID,0,VALID,100,VALID,0,VALID,18.8966,VALID,104,VALID,0.408975,
2008-11-02, 03:07:00,VALID,916.493,VALID,0,VALID,100,VALID,0.0169808,VALID,18.8998,VALID,87,VALID,0.00218023,
2008-11-02, 03:08:00,VALID,916.493,VALID,0,VALID,100,VALID,0.0169808,VALID,18.8833,VALID,82,VALID,0,
2008-11-02, 03:09:00,VALID,916.47,VALID,0,VALID,100,VALID,0.0169808,VALID,18.8933,VALID,70,VALID,0,
2008-11-02, 03:10:00,VALID,916.468,VALID,0,VALID,100,VALID,0,VALID,18.8901,VALID,94,VALID,0,
2008-11-02, 03:11:00,VALID,916.458,VALID,0,VALID,100,VALID,0,VALID,18.8933,VALID,134,VALID,0.0461648,
2008-11-02, 03:12:00,VALID,916.452,VALID,0,VALID,100,VALID,0,VALID,18.8803,VALID,136,VALID,0,
2008-11-02, 03:13:00,VALID,916.465,VALID,0,VALID,100,VALID,0.0169808,VALID,18.8868,VALID,136,VALID,0,
2008-11-02, 03:14:00,VALID,916.486,VALID,0,VALID,100,VALID,0,VALID,18.8998,VALID,136,VALID,0,
2008-11-02, 03:15:00,VALID,916.488,VALID,0,VALID,100,VALID,0,VALID,18.9065,VALID,136,VALID,0,
2008-11-02, 03:16:00,VALID,916.465,VALID,0,VALID,100,VALID,0.0509425,VALID,18.9355,VALID,136,VALID,0,
2008-11-02, 03:17:00,VALID,916.451,VALID,0,VALID,100,VALID,0.0169808,VALID,18.9322,VALID,136,VALID,0,
2008-11-02, 03:18:00,VALID,916.444,VALID,0,VALID,100,VALID,0.0509425,VALID,18.9322,VALID,109,VALID,0.0375381,
2008-11-02, 03:19:00,VALID,916.453,VALID,0,VALID,100,VALID,0.0169808,VALID,18.9322,VALID,71,VALID,0,
2008-11-02, 03:20:00,VALID,916.441,VALID,0,VALID,100,VALID,0.0169808,VALID,18.929,VALID,71,VALID,0,
2008-11-02, 03:21:00,VALID,916.419,VALID,0,VALID,100,VALID,0,VALID,18.9193,VALID,75,VALID,0,
2008-11-02, 03:22:00,VALID,916.395,VALID,0,VALID,100,VALID,0,VALID,18.8933,VALID,76,VALID,0,
2008-11-02, 03:23:00,VALID,916.369,VALID,0,VALID,100,VALID,0,VALID,18.9003,VALID,76,VALID,0,
2008-11-02, 03:24:00,VALID,916.335,VALID,0,VALID,100,VALID,0.0169808,VALID,18.8998,VALID,66,VALID,0,
2008-11-02, 03:25:00,VALID,916.308,VALID,0,VALID,100,VALID,0,VALID,18.929,VALID,51,VALID,0,
2008-11-02, 03:26:00,VALID,916.303,VALID,0,VALID,100,VALID,0.0169808,VALID,18.939,VALID,51,VALID,0,
2008-11-02, 03:27:00,VALID,916.307,VALID,0,VALID,100,VALID,0.0169808,VALID,18.9547,VALID,41,VALID,0,
2008-11-02, 03:28:00,VALID,916.294,VALID,0,VALID,100,VALID,0,VALID,18.9647,VALID,22,VALID,0,
2008-11-02, 03:29:00,VALID,916.276,VALID,0,VALID,100,VALID,0,VALID,18.9325,VALID,325,VALID,0,
2008-11-02, 03:30:00,VALID,916.251,VALID,0,VALID,100,VALID,0.0169808,VALID,18.9095,VALID,328,VALID,0,
2008-11-02, 03:31:00,VALID,916.229,VALID,0,VALID,100,VALID,0.0339617,VALID,18.8966,VALID,351,VALID,0,
2008-11-02, 03:32:00,VALID,916.211,VALID,0,VALID,100,VALID,0.0339617,VALID,18.8831,VALID,8,VALID,0,
2008-11-02, 03:33:00,VALID,916.183,VALID,0,VALID,100,VALID,0.0339617,VALID,18.8871,VALID,8,VALID,0,
2008-11-02, 03:34:00,VALID,916.169,VALID,0,VALID,100,VALID,0.0169808,VALID,18.8736,VALID,19,VALID,0.0848214,
2008-11-02, 03:35:00,VALID,916.171,VALID,0,VALID,100,VALID,0.0169808,VALID,18.8706,VALID,13,VALID,0,
2008-11-02, 03:36:00,VALID,916.184,VALID,0,VALID,100,VALID,0,VALID,18.8609,VALID,13,VALID,0,
2008-11-02, 03:37:00,VALID,916.174,VALID,0,VALID,100,VALID,0.0169808,VALID,18.8711,VALID,12,VALID,0,
2008-11-02, 03:38:00,VALID,916.17,VALID,0,VALID,100,VALID,0.0169808,VALID,18.8644,VALID,12,VALID,0,
2008-11-02, 03:39:00,VALID,916.163,VALID,0,VALID,100,VALID,0.0169808,VALID,18.8544,VALID,12,VALID,0,
2008-11-02, 03:40:00,VALID,916.16,VALID,0,VALID,100,VALID,-0.0169808,VALID,18.8579,VALID,12,VALID,0,
2008-11-02, 03:41:00,VALID,916.161,VALID,0,VALID,100,VALID,0,VALID,18.8511,VALID,12,VALID,0,
2008-11-02, 03:42:00,VALID,916.166,VALID,0,VALID,100,VALID,0.0339617,VALID,18.8414,VALID,12,VALID,0,
2008-11-02, 03:43:00,VALID,916.152,VALID,0,VALID,100,VALID,0,VALID,18.8447,VALID,17,VALID,0,
2008-11-02, 03:44:00,VALID,916.167,VALID,0,VALID,100,VALID,0,VALID,18.822,VALID,18,VALID,0,
2008-11-02, 03:45:00,VALID,916.169,VALID,0,VALID,100,VALID,0,VALID,18.8282,VALID,35,VALID,0,
2008-11-02, 03:46:00,VALID,916.159,VALID,0,VALID,100,VALID,0,VALID,18.8449,VALID,43,VALID,0,